Yakutat, AK

1:14 AM AKST on December 17, 2017 (GMT -0900)
Yakutat

Weather History for PAYA - December, 2012

Change the Weather History Date:

Monday, December 31, 2012

  Actual Average Record
Temperature  
Mean Temperature 37 °F 29 °F  
Max Temperature 38 °F 34 °F 49 °F (1925)
Min Temperature 35 °F 23 °F -15 °F (1949)
Degree Days  
Heating Degree Days 28 36  
Month to date heating degree days 1231 1096  
Since 1 July heating degree days 4368 3994  
Cooling Degree Days 0    
Month to date cooling degree days 0  
Year to date cooling degree days 0  
Moisture  
Dew Point 36 °F    
Average Humidity 0    
Maximum Humidity 0    
Minimum Humidity 0    
Precipitation  
Precipitation 0.23 in 0.51 in 2.91 in (1965)
Month to date precipitation 8.21 16.28  
Year to date precipitation 108.78 155.12  
Snow  
Snow 0.00 in 0.80 in 18.20 in (1965)
Month to date snowfall 27.2 23.2  
Since 1 July snowfall 53.1 43.9  
Snow Depth 10.00 in    
Sea Level Pressure  
Sea Level Pressure 30.00 in    
Wind  
Wind Speed 3 mph (East)    
Max Wind Speed 7 mph    
Max Gust Speed 9 mph    
Visibility 5 miles    
Events Fog , Rain    
T = Trace of Precipitation, MM = Missing Value Source: NWS Daily Summary

Daily Weather History Graph

Daily Weather History Graph

Search for Another Location

Airport or City:

Trip Planner

Search our weather history database for the weather conditions in past years. The results will help you decide how hot, cold, wet, or windy it might be!

Date:

Astronomy

Dec. 31, 2012 Rise Set
Actual Time 9:16 AM AKST 3:27 PM AKST
Civil Twilight 8:21 AM AKST 4:22 PM AKST
Nautical Twilight 7:26 AM AKST 5:18 PM AKST
Astronomical Twilight 6:35 AM AKST 6:08 PM AKST
Moon 8:10 PM AKST (12/31) 10:04 AM AKST (12/31)
Length of Visible Light 8h 01m
Length of Day
6h 11m
Waning Gibbous, 89% of the Moon is Illuminated
Dec 31
Waning Gibbous
Jan 4
Last Quarter
Jan 11
New
Jan 18
First Quarter
Jan 26
Full

Hourly Weather History & Observations

Time (AKST) Temp. Windchill Dew Point Humidity Pressure Visibility Wind Dir Wind Speed Gust Speed Precip Events Conditions
12:00 AM 35.6 °F 32.8 °F 35.6 °F 100% 29.75 in 2.0 mi ENE 3.5 mph - N/A   Overcast
12:13 AM 35.6 °F - 35.6 °F 100% 29.75 in 3.0 mi Calm Calm - N/A   Overcast
12:24 AM 35.6 °F - 35.6 °F 100% 29.75 in 3.0 mi Calm Calm - 0.01 in   Overcast
12:49 AM 35.6 °F 32.8 °F 35.6 °F 100% 29.76 in 2.5 mi East 3.5 mph - 0.01 in Rain Light Rain
12:53 AM 36.0 °F 33.3 °F 36.0 °F 100% 29.76 in 3.0 mi East 3.5 mph - 0.01 in Rain Light Rain
1:53 AM 36.0 °F - 36.0 °F 100% 29.79 in 5.0 mi Calm Calm - 0.01 in Rain Light Rain
3:03 AM 37.4 °F - 35.6 °F 93% 29.81 in 7.0 mi Calm Calm - 0.01 in Rain Light Rain
3:40 AM 35.6 °F 32.8 °F 35.6 °F 100% 29.82 in 4.0 mi East 3.5 mph - 0.01 in   Overcast
3:53 AM 36.0 °F 32.1 °F 36.0 °F 100% 29.83 in 2.0 mi East 4.6 mph - 0.01 in   Overcast
4:01 AM 35.6 °F 32.8 °F 35.6 °F 100% 29.83 in 1.8 mi East 3.5 mph - N/A   Overcast
4:13 AM 35.6 °F 32.8 °F 35.6 °F 100% 29.84 in 1.0 mi ENE 3.5 mph - N/A   Overcast
4:25 AM 35.6 °F 32.8 °F 35.6 °F 100% 29.84 in 0.8 mi East 3.5 mph - N/A   Overcast
4:53 AM 36.0 °F 33.3 °F 36.0 °F 100% 29.86 in 0.5 mi ENE 3.5 mph - N/A Fog Fog
5:53 AM 36.0 °F - 36.0 °F 100% 29.88 in 1.0 mi Calm Calm - N/A   Mist
6:07 AM 35.6 °F - 35.6 °F 100% 29.89 in 1.5 mi Calm Calm - N/A   Overcast
6:21 AM 35.6 °F - 35.6 °F 100% 29.89 in 3.0 mi Calm Calm - N/A   Overcast
6:41 AM 35.6 °F - 35.6 °F 100% 29.90 in 1.8 mi Calm Calm - N/A   Overcast
6:53 AM 36.0 °F - 35.1 °F 97% 29.91 in 1.0 mi Calm Calm - N/A   Overcast
7:02 AM 35.6 °F - 35.6 °F 100% 29.91 in 0.8 mi Calm Calm - N/A   Mist
7:30 AM 35.6 °F - 35.6 °F 100% 29.93 in 1.2 mi Calm Calm - N/A   Overcast
7:37 AM 35.6 °F - 35.6 °F 100% 29.94 in 2.0 mi Calm Calm - N/A   Overcast
7:46 AM 35.6 °F 32.8 °F 35.6 °F 100% 29.94 in 7.0 mi ESE 3.5 mph - N/A   Overcast
7:53 AM 35.1 °F 32.2 °F 35.1 °F 100% 29.95 in 10.0 mi ESE 3.5 mph - N/A   Overcast
8:53 AM 35.1 °F 32.2 °F 35.1 °F 100% 29.98 in 4.0 mi SE 3.5 mph - 0.00 in Rain Light Rain
9:53 AM 35.1 °F - 35.1 °F 100% 30.02 in 5.0 mi Calm Calm - 0.01 in Rain Light Rain
9:58 AM 35.6 °F - 35.6 °F 100% 30.02 in 2.5 mi Calm Calm - 0.01 in Rain Light Rain
10:05 AM 35.6 °F - 35.6 °F 100% 30.02 in 3.0 mi Calm Calm - 0.01 in Rain Light Rain
10:13 AM 35.6 °F 32.8 °F 35.6 °F 100% 30.03 in 3.0 mi ESE 3.5 mph - 0.02 in Rain Light Rain
10:20 AM 35.6 °F - 35.6 °F 100% 30.03 in 2.5 mi Calm Calm - 0.02 in Rain Light Rain
10:31 AM 35.6 °F 32.8 °F 35.6 °F 100% 30.04 in 1.8 mi ENE 3.5 mph - 0.03 in Rain Light Rain
10:40 AM 35.6 °F - 35.6 °F 100% 30.05 in 3.0 mi Calm Calm - 0.04 in Rain Light Rain
10:53 AM 35.1 °F - 35.1 °F 100% 30.06 in 4.0 mi Calm Calm - 0.04 in Rain Light Rain
11:53 AM 36.0 °F 32.1 °F 36.0 °F 100% 30.07 in 8.0 mi East 4.6 mph - 0.00 in   Overcast
12:37 PM 35.6 °F 30.7 °F 35.6 °F 100% 30.07 in 4.0 mi East 5.8 mph - 0.00 in Rain Light Rain
12:53 PM 36.0 °F 31.1 °F 36.0 °F 100% 30.08 in 5.0 mi East 5.8 mph - 0.00 in Rain Light Rain
12:57 PM 35.6 °F 31.7 °F 35.6 °F 100% 30.08 in 6.0 mi East 4.6 mph - 0.01 in Rain Light Rain
1:04 PM 35.6 °F 32.8 °F 35.6 °F 100% 30.08 in 9.0 mi East 3.5 mph - 0.01 in Rain Light Rain
1:34 PM 37.4 °F 34.9 °F 35.6 °F 93% 30.09 in 2.5 mi ESE 3.5 mph - 0.02 in Rain Light Rain
1:44 PM 37.4 °F 32.8 °F 35.6 °F 93% 30.10 in 7.0 mi Variable 5.8 mph - 0.02 in Rain Light Rain
1:53 PM 37.0 °F 34.5 °F 37.0 °F 100% 30.11 in 6.0 mi South 3.5 mph - 0.02 in Rain Light Rain
1:57 PM 37.4 °F - 37.4 °F 100% 30.10 in 2.5 mi Calm Calm - 0.00 in Rain Light Rain
1:59 PM 37.4 °F - 37.4 °F 100% 30.10 in 1.8 mi Calm Calm - 0.01 in Rain Light Rain
2:09 PM 37.4 °F 33.8 °F 37.4 °F 100% 30.10 in 3.0 mi ENE 4.6 mph - 0.03 in Rain Light Rain
2:36 PM 37.4 °F 34.9 °F 35.6 °F 93% 30.11 in 5.0 mi East 3.5 mph - 0.03 in Rain Light Rain
2:43 PM 37.4 °F 33.8 °F 35.6 °F 93% 30.12 in 6.0 mi East 4.6 mph - 0.03 in Rain Light Rain
2:53 PM 37.0 °F 32.4 °F 36.0 °F 96% 30.13 in 6.0 mi ESE 5.8 mph - 0.03 in Rain Light Rain
3:53 PM 37.0 °F 33.3 °F 36.0 °F 96% 30.14 in 10.0 mi East 4.6 mph - 0.00 in Rain Light Rain
4:27 PM 37.4 °F 33.8 °F 35.6 °F 93% 30.14 in 4.0 mi East 4.6 mph - 0.02 in Rain Light Rain
4:53 PM 37.0 °F 31.0 °F 36.0 °F 96% 30.14 in 10.0 mi ENE 8.1 mph - 0.02 in   Mostly Cloudy
5:33 PM 37.4 °F 33.8 °F 35.6 °F 93% 30.16 in 9.0 mi ESE 4.6 mph - 0.03 in Rain Light Rain
5:53 PM 37.0 °F 31.6 °F 36.0 °F 96% 30.15 in 10.0 mi ENE 6.9 mph - 0.03 in   Overcast
6:13 PM 37.4 °F 32.8 °F 35.6 °F 93% 30.16 in 10.0 mi East 5.8 mph - N/A   Mostly Cloudy
6:53 PM 37.0 °F 31.0 °F 36.0 °F 96% 30.16 in 10.0 mi East 8.1 mph - N/A   Overcast
7:53 PM 37.0 °F 30.4 °F 35.1 °F 93% 30.14 in 10.0 mi East 9.2 mph - N/A   Overcast
8:33 PM 37.4 °F 31.4 °F 35.6 °F 93% 30.13 in 10.0 mi East 8.1 mph - N/A   Mostly Cloudy
8:53 PM 37.0 °F 31.6 °F 35.1 °F 93% 30.13 in 10.0 mi East 6.9 mph - N/A   Overcast
9:53 PM 37.0 °F 29.3 °F 35.1 °F 93% 30.11 in 10.0 mi East 11.5 mph - N/A   Overcast
10:53 PM 37.9 °F 33.5 °F 35.1 °F 89% 30.11 in 10.0 mi East 5.8 mph - N/A   Overcast
11:53 PM 37.9 °F 32.1 °F 34.0 °F 86% 30.11 in 9.0 mi East 8.1 mph - N/A   Overcast